Hourly Data Report for October 03, 2013

All times are specified in Local Standard Time (LST). Add 1 hour to adjust for Daylight Saving Time where and when it is observed.

POND INLET A
NUNAVUT

72°41'22.000" N
77°58'08.000" W
61.60 m
2403206
71095
YIO

Download Data

Hourly Data (October 2013)
Hourly Data Report for October 3, 2013
Temp Definition
°C
Dew Point Temp Definition
°C
Rel Hum Definition
%
Wind Dir Definition
10's deg

Wind Spd Definition
km/h
Visibility Definition
km
Stn Press Definition
kPa
Hmdx Definition


Wind Chill Definition


Weather Definition


TIME
00:00 Legend Double Dagger -4.3 -6.3 86 16 11 16.1 100.73   -9 LegendNANA
01:00 Legend Double Dagger -4.1 -6.1 86 16 15 16.1 100.76   -9 LegendNANA
02:00 Legend Double Dagger -3.9 -5.9 86 15 13 16.1 100.78   -9 LegendNANA
03:00 Legend Double Dagger -3.9 -5.9 86 16 11 16.1 100.79   -8 LegendNANA
04:00 Legend Double Dagger -4.2 -6.2 86 17 13 16.1 100.80   -9 LegendNANA
05:00 Legend Double Dagger -4.1 -6.1 86 18 15 16.1 100.81   -9 LegendNANA
06:00 Legend Double Dagger -4.3 -6.3 86 18 15 16.1 100.82   -10 LegendNANA
07:00 Legend Double Dagger -3.8 -6.4 82 20 15 16.1 100.84   -9 LegendNANA
08:00 Legend Double Dagger -3.2 -6.8 76 25 21 16.1 100.85   -9 LegendNANA
09:00 Legend Double Dagger -3.0 -7.3 73 25 26 16.1 100.85   -10 LegendNANA
10:00 Legend Double Dagger -3.2 -7.7 71 27 26 16.1 100.86   -10 LegendNANA
11:00 Legend Double Dagger -3.2 -7.5 72 27 21 16.1 100.87   -9 LegendNANA
12:00 Legend Double Dagger -3.1 -7.3 73 26 15 16.1 100.86   -8 LegendNANA
13:00 Legend Double Dagger -3.5 -6.8 78 26 17 16.1 100.88   -9 LegendNANA
14:00 Legend Double Dagger -3.7 -7.1 78 26 17 16.1 100.90   -9 LegendNANA
15:00 Legend Double Dagger -3.7 -7.8 73 25 22 16.1 100.90   -10 LegendNANA
16:00 Legend Double Dagger -4.0 -8.1 73 27 24 16.1 100.89   -11 LegendNANA
17:00 Legend Double Dagger -4.3 -8.6 72 27 18 16.1 100.89   -10 LegendNANA
18:00 Legend Double Dagger -4.5 -9.2 70 25 21 16.1 100.89   -11 LegendNANA
19:00 Legend Double Dagger -5.0 -10.4 66 28 24 16.1 100.89   -12 LegendNANA
20:00 Legend Double Dagger -5.5 -11.9 61 28 28 16.1 100.89   -13 LegendNANA
21:00 Legend Double Dagger -6.0 -12.3 61 29 33 16.1 100.91   -15 LegendNANA
22:00 Legend Double Dagger -6.4 -11.6 67 27 28 16.1 100.95   -15 LegendNANA
23:00 Legend Double Dagger -6.4 -12.0 65 27 30 16.1 100.96   -15 LegendNANA

Notes on Data Quality.

Legend

  • E = Estimated
  • M = Missing
  • NA = Not Available
  • ‡ = Partner data that is not subject to review by the National Climate Archives
Date modified: